COSMOS 2251 DEB

Satellite information

Favourite Embed

Satellite Type and Status

DEBRISIN ORBIT

Key statistics

Satellite COSMOS 2251 DEB at a glance.

Uptime

11710

Days in orbit

Revolutions

≈ 14.8

Per day

Orbit

LEO

Low Earth Orbit

Inclination

74.0

Latest

Satellite identification and parameters

Extended collection of information and parameters for COSMOS 2251 DEB.

Object identification

Identified? True

Debris? True

Object name: COSMOS 2251 DEB

International designator: 1993-036SS

Object number (NORAD): 34449

Object ID (CCSDS): 34449

Country: COMMONWEALTH OF INDEPENDENT STATES (CIS)

Current information (Y/N): Y

RCS size: SMALL

Orbital parameters

Period: 96.975 minutes

Inclination: 74.0372 deg

SMA: 6991.962 km

Apoapsis: 640.389 km

Periapsis: 587.264 km

RAAN: 28.4054 deg

Eccentricy: 0.003799

Argument of periapsis: 126.9559 deg

Mean anomaly: 290.201 deg

Mean motion: 14.84923951 rev/day

Mean motion (dot): 0.00015561 rev/day2

B* drag term: 0.0018041 1/REarth

Two-line elements (TLE)

Creation date: July 6, 2025, 6:05 p.m.

Reference frame: TEME

Reference center: EARTH

Epoch: July 6, 2025, 2:59 p.m. UTC

TLE line 0: 0 COSMOS 2251 DEB

TLE line 1: 1 34449U 93036SS 25187.62490628 .00015561 00000-0 18041-2 0 9999

TLE line 2: 2 34449 74.0372 28.4054 0037990 126.9559 290.2010 14.84923951863251

Live tracking on map

Real-time ground track for satellite COSMOS 2251 DEB.

In-orbit conjunctions

A list of the most updated potential collisions computed for object COSMOS 2251 DEB.

Target Orbit TCA Probability of collision Miss distance Type
EGYPTSAT 1 SSO 2025-04-02 10:14:29 0.0001273559 174.0 (m) PAYLOAD
CZ-6A DEB SSO 2025-03-02 20:45:13 0.0006177709 52.0 (m) DEBRIS

Associated space launch

Military communications satellite. Destroyed in a collision with Iridium 33.

COSMOS 2251 DEB was lifted into orbit during the mission ‘Kosmos-3M | Strela-2M 51’, on board a Kosmos-3M space rocket.

The launch took place on June 16, 1993, 4:17 a.m. from 132/1 (132L).

For more information about the launch, click the button.

Launch to space Kosmos-3M | Strela-2M 51
Kosmos-3M | Strela-2M 51

Agency: N/A

Status: Launch Successful

Launch date: June 16, 1993, 4:17 a.m. UTC

Rocket: Kosmos-3M

Launch pad: 132/1 (132L)

Location: Plesetsk Cosmodrome, Russian Federation

...

Latest news about this satellite

There are no fresh news available about this satellite. Check back as we update our databases every day.


Newsletter sign-up

Weekly statistics, charts and insights to help you stay on top of the space industry.